Flag for Switzerland Weather past 2 weeks in Locarno, Ticino, Switzerland

Now
86 °F

Scattered clouds.


Feels Like: 91 °F
Forecast: 56 / 77 °F
Wind: 9 mph from Southwest

Location: Locarno-Monti

Current Time: Jul 3, 2015 at 3:03:06 PM

Latest Report: Jul 3, 2015 at 2:00 PM


Visibility: 5 mi

Pressure: 30.18 "Hg

Humidity: 61%

Dew point: 71 °F

Location of LocarnoLocation

Historic Weather in Locarno — Graph

°F

Locarno temperature yesterday

Maximum temperature yesterday: 88 °F (at 4:00 PM)
Minimum temperature yesterday: 72 °F (at 7:00 AM)
Average temperature yesterday: 80 °F

Past Weeks' High & Low Weather Summary

 TemperatureHumidityPressure
High88 °F (Jul 2, 4:00 PM)99% (Jun 23, 2:00 AM)30.23 "Hg (Jun 23, 2:00 AM)
Low59 °F (Jun 21, 7:00 AM)18% (Jun 19, 7:00 PM)29.71 "Hg (Jun 23, 3:00 PM)
Average72 °F57%30.03 "Hg
* Reported Jun 18 1:00 PM — Jul 3 1:00 PM, Locarno, Weather by CustomWeather, © 2015

Note: Actual official high and low records may vary slightly from our data, if they occured in-between our weather recording intervals... More about our weather records

Advertising

Locarno weather history for previous 24 hours

 ConditionsComfort  
Time TempWeatherWind HumidityBarometerVisibility
1:00 PM
Fri, Jul 3
85 °FWarm.6 mph59%30.19 "HgN/A
12:00 PM82 °FWarm.3 mph61%30.21 "HgN/A
11:00 AM79 °FWarm.2 mph68%30.22 "HgN/A
10:00 AM80 °FWarm.2 mph66%30.22 "HgN/A
9:00 AM77 °FWarm.2 mph74%30.23 "HgN/A
8:00 AM76 °FFog.1 mph79%30.23 "Hg5 mi
7:00 AM74 °FMild.1 mph82%30.23 "HgN/A
6:00 AM74 °FMild.No wind78%30.23 "HgN/A
5:00 AM75 °FMild.1 mph75%30.22 "HgN/A
4:00 AM76 °FMild.1 mph77%30.22 "HgN/A
3:00 AM76 °FMild.1 mph80%30.23 "HgN/A
2:00 AM77 °FMild.1 mph77%30.23 "HgN/A
1:00 AM78 °FWarm.2 mph73%30.22 "HgN/A
12:00 AM78 °FWarm.2 mph76%30.22 "HgN/A
11:00 PM
Thu, Jul 2
80 °FWarm.1 mph67%30.20 "HgN/A
10:00 PM80 °FWarm.2 mph68%30.17 "HgN/A
9:00 PM83 °FWarm.3 mph59%30.14 "HgN/A
8:00 PM84 °FHaze.2 mph55%30.11 "Hg5 mi
7:00 PM85 °FWarm.5 mph55%30.10 "HgN/A
6:00 PM87 °FWarm.7 mph52%30.09 "HgN/A
5:00 PM87 °FFog.8 mph50%30.09 "Hg5 mi
4:00 PM88 °FWarm.8 mph50%30.10 "HgN/A
3:00 PM87 °FWarm.6 mph53%30.11 "HgN/A
Weather by CustomWeather, © 2015

See weather overviewHow to use our weather pages